Location: Gälforsberget
(66.6500°N, 22.4167°E)
Time: 21:33:27
(UTC+00:00)

Cosmos 2237 Rocket - Pass Details

Date: 11 April 2026
Orbit: 833 x 850 km, 71.0° (Epoch: 11 May)

Event Time Altitude Azimuth Distance (km) Brightness Sun altitude
Exits shadow 22:29:01 - 238° (WSW) 3,432 5.1 -14.8°
Rises 22:29:04 0° 238° (WSW) 3,410 5.0 -14.8°
Reaches altitude 10° 22:31:31 10° 239° (WSW) 2,478 4.3 -14.8°
Maximum altitude 22:37:14 83° 328° (NNW) 867 2.3 -14.8°
Drops below altitude 10° 22:42:59 10° 57° (ENE) 2,490 5.1 -14.7°
Sets 22:45:27 0° 58° (ENE) 3,428 5.9 -14.7°
